Location: ?
(35.4064°N, 139.3593°E)
Time: 15:07:02
(UTC+00:00)

ACS3 Solar Sail - Pass Details

Date: 22 June 2024
Orbit: 993 x 1023 km, 97.4° (Epoch: 19 July)

Event Time Altitude Azimuth Distance (km) Brightness Sun altitude
Exits shadow 10:43:34 - 104° (ESE) 3,032 6.8 -8.1°
Reaches altitude 10° 10:44:47 10° 95° (E) 2,765 6.7 -8.3°
Maximum altitude 10:48:01 15° 63° (ENE) 2,424 6.6 -8.8°
Drops below altitude 10° 10:51:16 10° 31° (NNE) 2,765 7.3 -9.3°
Sets 10:54:55 0° 9° (N) 3,716 8.3 -9.9°
